| time (UTC) | temp F | wind direction | speed MPH | gust MPH | rain 1hr in | rain 24hr in | rain mn in | humidity % | barometer mb |
| 20260901071839 | 71 | 338 | 0.0 | 0.0 | 0.00 | 0.00 | 0.00 | 92 | 1011.8 |
| 20260901071244 | 71 | 338 | 1.0 | 1.0 | 0.00 | 0.00 | 0.00 | 92 | 1011.8 |
| 20260901070023 | 72 | 22 | 0.0 | 0.0 | 0.00 | 0.00 | 0.00 | 92 | 1011.8 |
| 20260901065437 | 72 | 22 | 0.0 | 0.0 | 0.00 | 0.00 | 0.00 | 92 | 1010.8 |
| 20260901064812 | 72 | 22 | 0.0 | 0.0 | 0.00 | 0.00 | 0.00 | 92 | 1010.8 |
| 20260901064233 | 72 | 22 | 0.0 | 0.0 | 0.00 | 0.00 | 0.00 | 92 | 1011.8 |
| 20260901063612 | 72 | 22 | 1.0 | 1.0 | 0.00 | 0.00 | 0.00 | 92 | 1011.8 |
| 20260901063050 | 72 | 338 | 0.0 | 0.0 | 0.00 | 0.00 | 0.00 | 92 | 1011.8 |
| 20260901062443 | 72 | 338 | 0.0 | 0.0 | 0.00 | 0.00 | 0.00 | 92 | 1011.8 |
| 20260901061827 | 72 | 338 | 0.0 | 0.0 | 0.00 | 0.00 | 0.00 | 93 | 1011.8 |
| 20260901060615 | 72 | 338 | 0.0 | 0.0 | 0.00 | 0.00 | 0.00 | 93 | 1011.8 |
| 20260901055441 | 72 | 338 | 0.0 | 0.0 | 0.00 | 0.00 | 0.00 | 93 | 1011.8 |
| 20260901054839 | 72 | 338 | 0.0 | 0.0 | 0.00 | 0.00 | 0.00 | 93 | 1011.8 |
| 20260901054232 | 72 | 338 | 0.0 | 0.0 | 0.00 | 0.00 | 0.00 | 93 | 1011.8 |
| 20260901053619 | 72 | 338 | 0.0 | 0.0 | 0.00 | 0.00 | 0.00 | 93 | 1011.8 |
| 20260901053016 | 72 | 338 | 0.0 | 0.0 | 0.00 | 0.00 | 0.00 | 93 | 1011.8 |
| 20260901052437 | 72 | 45 | 0.0 | 0.0 | 0.00 | 0.00 | 0.00 | 93 | 1011.8 |
| 20260901051844 | 72 | 45 | 0.0 | 0.0 | 0.00 | 0.00 | 0.00 | 93 | 1011.8 |
| 20260901051211 | 72 | 45 | 0.0 | 0.0 | 0.00 | 0.00 | 0.00 | 93 | 1011.8 |
| 20260901050633 | 72 | 45 | 0.0 | 0.0 | 0.00 | 0.00 | 0.00 | 93 | 1011.8 |
| 20260901050019 | 72 | 45 | 0.0 | 0.0 | 0.00 | 0.00 | 0.00 | 92 | 1011.8 |
| 20260901045445 | 72 | 292 | 1.0 | 1.0 | 0.00 | 0.00 | 0.00 | 92 | 1011.8 |
| 20260901044808 | 72 | 292 | 0.0 | 0.0 | 0.00 | 0.00 | 0.00 | 92 | 1011.8 |
| 20260901044207 | 72 | 292 | 0.0 | 0.0 | 0.00 | 0.00 | 0.00 | 92 | 1011.8 |
| 20260901043008 | 72 | 292 | 0.0 | 0.0 | 0.00 | 0.00 | 0.00 | 92 | 1011.8 |
| 20260901042443 | 72 | 292 | 0.0 | 0.0 | 0.00 | 0.00 | 0.00 | 92 | 1011.8 |
| 20260901041847 | 73 | 292 | 0.0 | 0.0 | 0.00 | 0.00 | 0.00 | 91 | 1011.8 |
| 20260901035444 | 74 | 292 | 0.0 | 0.0 | 0.00 | 0.00 | 0.00 | 90 | 1011.8 |
| 20260901034829 | 74 | 292 | 0.0 | 0.0 | 0.00 | 0.00 | 0.00 | 89 | 1011.8 |
| 20260901034218 | 74 | 292 | 0.0 | 0.0 | 0.00 | 0.00 | 0.00 | 88 | 1011.8 |
| 20260901033639 | 73 | 292 | 1.0 | 1.0 | 0.00 | 0.00 | 0.00 | 91 | 1011.8 |
| 20260901033039 | 73 | 292 | 0.0 | 0.0 | 0.00 | 0.00 | 0.00 | 91 | 1011.8 |
| 20260901032450 | 74 | 292 | 0.0 | 0.0 | 0.00 | 0.00 | 0.00 | 90 | 1011.8 |
| 20260901031811 | 74 | 292 | 0.0 | 0.0 | 0.00 | 0.00 | 0.00 | 90 | 1011.8 |
| 20260901031246 | 73 | 292 | 0.0 | 0.0 | 0.00 | 0.00 | 0.00 | 91 | 1011.8 |
| 20260901030650 | 73 | 292 | 0.0 | 0.0 | 0.00 | 0.00 | 0.00 | 91 | 1011.8 |
| 20260901030049 | 74 | 292 | 0.0 | 0.0 | 0.00 | 0.00 | 0.00 | 91 | 1011.8 |
| 20260901025414 | 74 | 292 | 0.0 | 0.0 | 0.00 | 0.00 | 0.00 | 91 | 1011.8 |
| 20260901024810 | 74 | 292 | 0.0 | 0.0 | 0.00 | 0.00 | 0.00 | 90 | 1011.8 |
| 20260901024229 | 75 | 292 | 0.0 | 0.0 | 0.00 | 0.00 | 0.00 | 88 | 1011.8 |
| 20260901023039 | 74 | 292 | 0.0 | 0.0 | 0.00 | 0.00 | 0.00 | 91 | 1011.8 |
| 20260901022432 | 74 | 292 | 0.0 | 0.0 | 0.00 | 0.00 | 0.00 | 90 | 1011.8 |
| 20260901021847 | 74 | 292 | 2.0 | 2.0 | 0.00 | 0.00 | 0.00 | 90 | 1011.8 |
| 20260901021219 | 74 | 292 | 1.0 | 1.0 | 0.00 | 0.00 | 0.00 | 91 | 1011.8 |
| 20260901020637 | 74 | 292 | 0.0 | 0.0 | 0.00 | 0.00 | 0.00 | 91 | 1011.8 |
| 20260901020045 | 74 | 292 | 0.0 | 0.0 | 0.00 | 0.00 | 0.00 | 91 | 1011.8 |
| 20260901014843 | 74 | 292 | 0.0 | 0.0 | 0.00 | 0.00 | 0.00 | 91 | 1011.8 |
| 20260901014223 | 74 | 292 | 0.0 | 0.0 | 0.00 | 0.00 | 0.00 | 91 | 1010.8 |
| 20260901013639 | 74 | 292 | 0.0 | 0.0 | 0.00 | 0.00 | 0.00 | 91 | 1010.8 |
| 20260901013046 | 74 | 292 | 0.0 | 0.0 | 0.00 | 0.00 | 0.00 | 91 | 1010.8 |
| 20260901012414 | 74 | 292 | 0.0 | 0.0 | 0.00 | 0.00 | 0.00 | 91 | 1010.8 |
| 20260901011847 | 74 | 292 | 0.0 | 0.0 | 0.00 | 0.00 | 0.00 | 90 | 1010.8 |
| 20260901011230 | 74 | 292 | 0.0 | 0.0 | 0.00 | 0.00 | 0.00 | 90 | 1010.8 |
| 20260901010643 | 75 | 292 | 0.0 | 0.0 | 0.00 | 0.00 | 0.00 | 90 | 1010.8 |
| 20260901010022 | 75 | 292 | 0.0 | 0.0 | 0.00 | 0.00 | 0.00 | 90 | 1010.8 |
| 20260901005444 | 75 | 292 | 0.0 | 0.0 | 0.00 | 0.00 | 0.00 | 90 | 1010.8 |
| 20260901004837 | 75 | 292 | 0.0 | 0.0 | 0.00 | 0.00 | 0.00 | 90 | 1010.8 |
| 20260901004233 | 76 | 292 | 0.0 | 0.0 | 0.00 | 0.00 | 0.00 | 89 | 1010.8 |
| 20260901003629 | 76 | 292 | 0.0 | 0.0 | 0.00 | 0.00 | 0.00 | 89 | 1010.8 |
| 20260901003040 | 76 | 292 | 0.0 | 0.0 | 0.00 | 0.00 | 0.00 | 89 | 1010.8 |
| 20260901002414 | 76 | 292 | 0.0 | 0.0 | 0.00 | 0.00 | 0.00 | 89 | 1010.8 |
| 20260901001826 | 76 | 292 | 0.0 | 0.0 | 0.00 | 0.00 | 0.00 | 88 | 1010.8 |
| 20260901000625 | 77 | 292 | 0.0 | 0.0 | 0.00 | 0.00 | 0.00 | 87 | 1010.8 |
| 20260901000048 | 78 | 292 | 0.0 | 0.0 | 0.00 | 0.00 | 0.00 | 86 | 1010.8 |
| 20260831235414 | 78 | 292 | 0.0 | 0.0 | 0.00 | 0.00 | 0.00 | 84 | 1010.8 |
| 20260831233648 | 80 | 292 | 0.0 | 0.0 | 0.00 | 0.00 | 0.00 | 82 | 1010.8 |
| 20260831233040 | 80 | 292 | 0.0 | 0.0 | 0.00 | 0.00 | 0.00 | 80 | 1010.8 |
| 20260831232421 | 80 | 292 | 0.0 | 0.0 | 0.00 | 0.00 | 0.00 | 79 | 1010.8 |
| 20260831231816 | 81 | 292 | 0.0 | 0.0 | 0.00 | 0.00 | 0.00 | 78 | 1010.8 |
| 20260831230048 | 82 | 292 | 0.0 | 0.0 | 0.00 | 0.00 | 0.00 | 77 | 1010.8 |
| 20260831225409 | 83 | 292 | 0.0 | 0.0 | 0.00 | 0.00 | 0.00 | 75 | 1010.8 |
| 20260831224825 | 84 | 292 | 0.0 | 0.0 | 0.00 | 0.00 | 0.00 | 73 | 1010.8 |
| 20260831224249 | 86 | 292 | 0.0 | 0.0 | 0.00 | 0.00 | 0.00 | 70 | 1010.8 |
| 20260831223044 | 88 | 292 | 1.0 | 1.0 | 0.00 | 0.00 | 0.00 | 64 | 1010.8 |
| 20260831222425 | 88 | 292 | 0.0 | 0.0 | 0.00 | 0.00 | 0.00 | 63 | 1010.8 |
| 20260831221840 | 88 | 292 | 1.0 | 1.0 | 0.00 | 0.00 | 0.00 | 63 | 1010.8 |
| 20260831221216 | 88 | 292 | 0.0 | 0.0 | 0.00 | 0.00 | 0.00 | 62 | 1010.8 |
| 20260831214830 | 89 | 315 | 1.0 | 1.0 | 0.00 | 0.00 | 0.00 | 65 | 1010.8 |
| 20260831214225 | 88 | 292 | 2.0 | 2.0 | 0.00 | 0.00 | 0.00 | 64 | 1010.8 |
| 20260831213637 | 85 | 22 | 1.0 | 1.0 | 0.00 | 0.00 | 0.00 | 62 | 1010.8 |
| 20260831212447 | 82 | 68 | 0.0 | 0.0 | 0.00 | 0.00 | 0.00 | 74 | 1010.8 |
| 20260831211242 | 84 | 68 | 1.0 | 1.0 | 0.00 | 0.00 | 0.00 | 72 | 1010.8 |
| 20260831210643 | 87 | 68 | 1.0 | 1.0 | 0.00 | 0.00 | 0.00 | 70 | 1010.8 |
| 20260831210041 | 88 | 68 | 1.0 | 1.0 | 0.00 | 0.00 | 0.00 | 66 | 1010.8 |
| 20260831205440 | 90 | 338 | 0.0 | 0.0 | 0.00 | 0.00 | 0.00 | 63 | 1010.8 |
| 20260831204843 | 91 | 338 | 0.0 | 0.0 | 0.00 | 0.00 | 0.00 | 62 | 1010.8 |
| 20260831204227 | 91 | 270 | 1.0 | 1.0 | 0.00 | 0.00 | 0.00 | 58 | 1010.8 |
| 20260831203626 | 90 | 270 | 2.0 | 2.0 | 0.00 | 0.00 | 0.00 | 54 | 1010.8 |
| 20260831203048 | 90 | 248 | 0.0 | 0.0 | 0.00 | 0.00 | 0.00 | 60 | 1010.8 |
| 20260831201242 | 85 | 292 | 2.0 | 2.0 | 0.00 | 0.00 | 0.00 | 64 | 1011.8 |
| 20260831200637 | 85 | 248 | 1.0 | 1.0 | 0.00 | 0.00 | 0.00 | 66 | 1011.8 |
| 20260831200027 | 84 | 270 | 3.0 | 3.0 | 0.00 | 0.00 | 0.00 | 66 | 1011.8 |
| 20260831195410 | 83 | 270 | 0.0 | 0.0 | 0.00 | 0.00 | 0.00 | 67 | 1011.8 |
| 20260831194835 | 82 | 270 | 2.0 | 2.0 | 0.00 | 0.00 | 0.00 | 73 | 1011.8 |
| 20260831194240 | 82 | 248 | 1.0 | 1.0 | 0.00 | 0.00 | 0.00 | 72 | 1011.8 |
| 20260831193645 | 82 | 248 | 2.0 | 2.0 | 0.00 | 0.00 | 0.00 | 71 | 1011.8 |
| 20260831193024 | 83 | 248 | 3.0 | 3.0 | 0.00 | 0.00 | 0.00 | 71 | 1011.8 |
| 20260831192445 | 84 | 248 | 2.0 | 2.0 | 0.00 | 0.00 | 0.00 | 69 | 1011.8 |
| 20260831191838 | 84 | 292 | 0.0 | 0.0 | 0.00 | 0.00 | 0.00 | 65 | 1011.8 |
| 20260831191225 | 83 | 292 | 0.0 | 0.0 | 0.00 | 0.00 | 0.00 | 68 | 1011.8 |
| 20260831190635 | 82 | 292 | 1.0 | 1.0 | 0.00 | 0.00 | 0.00 | 68 | 1011.8 |
| 20260831190045 | 83 | 292 | 2.0 | 2.0 | 0.00 | 0.00 | 0.00 | 68 | 1011.8 |
| 20260831185437 | 83 | 22 | 1.0 | 1.0 | 0.00 | 0.00 | 0.00 | 71 | 1011.8 |
| 20260831184251 | 84 | 248 | 2.0 | 2.0 | 0.00 | 0.00 | 0.00 | 61 | 1011.8 |
| 20260831183631 | 85 | 248 | 2.0 | 2.0 | 0.00 | 0.00 | 0.00 | 61 | 1011.8 |
| 20260831183051 | 87 | 292 | 1.0 | 1.0 | 0.00 | 0.00 | 0.00 | 58 | 1011.8 |
| 20260831182410 | 89 | 248 | 3.0 | 4.0 | 0.00 | 0.00 | 0.00 | 55 | 1011.8 |
| 20260831181832 | 90 | 112 | 2.0 | 2.0 | 0.00 | 0.00 | 0.00 | 55 | 1011.8 |
| 20260831180635 | 90 | 112 | 0.0 | 0.0 | 0.00 | 0.00 | 0.00 | 53 | 1011.8 |
| 20260831180034 | 90 | 68 | 2.0 | 2.0 | 0.00 | 0.00 | 0.00 | 53 | 1011.8 |
| 20260831175420 | 90 | 68 | 0.0 | 0.0 | 0.00 | 0.00 | 0.00 | 54 | 1011.8 |
| 20260831174808 | 91 | 248 | 1.0 | 1.0 | 0.00 | 0.00 | 0.00 | 48 | 1011.8 |
| 20260831174228 | 91 | 270 | 2.0 | 2.0 | 0.00 | 0.00 | 0.00 | 50 | 1011.8 |
| 20260831173651 | 91 | 248 | 2.0 | 2.0 | 0.00 | 0.00 | 0.00 | 49 | 1011.8 |
| 20260831172427 | 90 | 225 | 0.0 | 0.0 | 0.00 | 0.00 | 0.00 | 49 | 1011.8 |
| 20260831171229 | 90 | 225 | 2.0 | 2.0 | 0.00 | 0.00 | 0.00 | 50 | 1012.8 |
| 20260831170623 | 90 | 180 | 3.0 | 4.0 | 0.00 | 0.00 | 0.00 | 50 | 1012.8 |
| 20260831165439 | 90 | 248 | 2.0 | 2.0 | 0.00 | 0.00 | 0.00 | 52 | 1012.8 |
| 20260831164824 | 90 | 248 | 3.0 | 3.0 | 0.00 | 0.00 | 0.00 | 52 | 1012.8 |
| 20260831164248 | 90 | 202 | 1.0 | 1.0 | 0.00 | 0.00 | 0.00 | 53 | 1012.8 |
| 20260831163634 | 90 | 248 | 1.0 | 1.0 | 0.00 | 0.00 | 0.00 | 53 | 1012.8 |
| 20260831163030 | 90 | 225 | 3.0 | 3.0 | 0.00 | 0.00 | 0.00 | 53 | 1012.8 |
| 20260831162440 | 91 | 248 | 4.0 | 4.0 | 0.00 | 0.00 | 0.00 | 54 | 1012.8 |
| 20260831161808 | 90 | 68 | 0.0 | 0.0 | 0.00 | 0.00 | 0.00 | 51 | 1012.8 |
| 20260831161228 | 90 | 68 | 1.0 | 1.0 | 0.00 | 0.00 | 0.00 | 53 | 1012.8 |
| 20260831160646 | 90 | 112 | 3.0 | 3.0 | 0.00 | 0.00 | 0.00 | 55 | 1012.8 |
| 20260831160050 | 91 | 68 | 1.0 | 1.0 | 0.00 | 0.00 | 0.00 | 52 | 1012.8 |
| 20260831155441 | 91 | 112 | 0.0 | 0.0 | 0.00 | 0.00 | 0.00 | 54 | 1012.8 |
| 20260831154218 | 88 | 292 | 1.0 | 1.0 | 0.00 | 0.00 | 0.00 | 57 | 1012.8 |
| 20260831153648 | 87 | 90 | 1.0 | 1.0 | 0.00 | 0.00 | 0.00 | 62 | 1012.8 |
| 20260831153042 | 87 | 90 | 2.0 | 2.0 | 0.00 | 0.00 | 0.00 | 63 | 1012.8 |
| 20260831152407 | 86 | 90 | 3.0 | 3.0 | 0.00 | 0.00 | 0.00 | 64 | 1012.8 |
| 20260831151247 | 85 | 90 | 2.0 | 2.0 | 0.00 | 0.00 | 0.00 | 65 | 1012.8 |
| 20260831150632 | 85 | 68 | 1.0 | 1.0 | 0.00 | 0.00 | 0.00 | 66 | 1012.8 |
| 20260831150014 | 85 | 68 | 0.0 | 0.0 | 0.00 | 0.00 | 0.00 | 67 | 1012.8 |
| 20260831145441 | 84 | 68 | 1.0 | 1.0 | 0.00 | 0.00 | 0.00 | 68 | 1012.8 |
| 20260831144823 | 83 | 68 | 2.0 | 2.0 | 0.00 | 0.00 | 0.00 | 67 | 1012.8 |
| 20260831144217 | 83 | 68 | 2.0 | 2.0 | 0.00 | 0.00 | 0.00 | 68 | 1012.8 |
| 20260831143032 | 83 | 68 | 0.0 | 0.0 | 0.00 | 0.00 | 0.00 | 67 | 1012.8 |
| 20260831142410 | 84 | 68 | 2.0 | 2.0 | 0.00 | 0.00 | 0.00 | 67 | 1012.8 |
| 20260831141247 | 81 | 68 | 0.0 | 0.0 | 0.00 | 0.00 | 0.00 | 69 | 1012.8 |
| 20260831140651 | 80 | 68 | 0.0 | 0.0 | 0.00 | 0.00 | 0.00 | 70 | 1012.8 |
| 20260831135433 | 76 | 68 | 0.0 | 0.0 | 0.00 | 0.00 | 0.00 | 74 | 1012.8 |
| 20260831134848 | 75 | 68 | 0.0 | 0.0 | 0.00 | 0.00 | 0.00 | 79 | 1012.8 |
| 20260831134212 | 75 | 68 | 1.0 | 1.0 | 0.00 | 0.00 | 0.00 | 78 | 1012.8 |
| 20260831133646 | 74 | 68 | 1.0 | 1.0 | 0.00 | 0.00 | 0.00 | 80 | 1012.8 |
| 20260831133036 | 75 | 68 | 1.0 | 1.0 | 0.00 | 0.00 | 0.00 | 80 | 1012.8 |
| 20260831132448 | 74 | 68 | 0.0 | 0.0 | 0.00 | 0.00 | 0.00 | 79 | 1012.8 |
| 20260831131848 | 72 | 68 | 0.0 | 0.0 | 0.00 | 0.00 | 0.00 | 81 | 1012.8 |
| 20260831131239 | 70 | 68 | 0.0 | 0.0 | 0.00 | 0.00 | 0.00 | 88 | 1012.8 |
| 20260831130638 | 70 | 292 | 0.0 | 0.0 | 0.00 | 0.00 | 0.00 | 87 | 1012.8 |
| 20260831130043 | 69 | 292 | 0.0 | 0.0 | 0.00 | 0.00 | 0.00 | 89 | 1012.8 |
| 20260831125406 | 69 | 292 | 0.0 | 0.0 | 0.00 | 0.00 | 0.00 | 90 | 1012.8 |
| 20260831124810 | 68 | 292 | 0.0 | 0.0 | 0.00 | 0.00 | 0.00 | 90 | 1012.8 |
| 20260831124230 | 68 | 292 | 0.0 | 0.0 | 0.00 | 0.00 | 0.00 | 91 | 1012.8 |
| 20260831123035 | 67 | 292 | 2.0 | 2.0 | 0.00 | 0.00 | 0.00 | 92 | 1012.8 |
| 20260831122413 | 67 | 292 | 1.0 | 1.0 | 0.00 | 0.00 | 0.00 | 92 | 1012.8 |
| 20260831121833 | 67 | 292 | 2.0 | 2.0 | 0.00 | 0.00 | 0.00 | 92 | 1012.8 |
| 20260831121237 | 67 | 292 | 1.0 | 1.0 | 0.00 | 0.00 | 0.00 | 92 | 1012.8 |
| 20260831120649 | 67 | 292 | 2.0 | 2.0 | 0.00 | 0.00 | 0.00 | 92 | 1012.8 |
| 20260831120024 | 67 | 292 | 1.0 | 1.0 | 0.00 | 0.00 | 0.00 | 92 | 1012.8 |
| 20260831115442 | 67 | 292 | 2.0 | 2.0 | 0.00 | 0.00 | 0.00 | 92 | 1012.8 |
| 20260831114222 | 67 | 292 | 1.0 | 1.0 | 0.00 | 0.00 | 0.00 | 92 | 1012.8 |
| 20260831113636 | 67 | 292 | 0.0 | 0.0 | 0.00 | 0.00 | 0.00 | 92 | 1012.8 |
| 20260831113049 | 67 | 292 | 2.0 | 2.0 | 0.00 | 0.00 | 0.00 | 92 | 1012.8 |
| 20260831112411 | 67 | 292 | 0.0 | 0.0 | 0.00 | 0.00 | 0.00 | 93 | 1012.8 |
| 20260831111221 | 67 | 292 | 0.0 | 0.0 | 0.00 | 0.00 | 0.00 | 92 | 1012.8 |
| 20260831110608 | 67 | 292 | 1.0 | 1.0 | 0.00 | 0.00 | 0.00 | 92 | 1012.8 |
| 20260831110042 | 67 | 292 | 0.0 | 0.0 | 0.00 | 0.00 | 0.00 | 92 | 1012.8 |
| 20260831104852 | 68 | 292 | 0.0 | 0.0 | 0.00 | 0.00 | 0.00 | 92 | 1012.8 |
| 20260831104229 | 68 | 292 | 2.0 | 2.0 | 0.00 | 0.00 | 0.00 | 92 | 1011.8 |
| 20260831103641 | 68 | 292 | 0.0 | 0.0 | 0.00 | 0.00 | 0.00 | 92 | 1011.8 |
| 20260831103026 | 68 | 292 | 0.0 | 0.0 | 0.00 | 0.00 | 0.00 | 92 | 1011.8 |
| 20260831102417 | 68 | 292 | 0.0 | 0.0 | 0.00 | 0.00 | 0.00 | 92 | 1011.8 |
| 20260831101839 | 68 | 292 | 0.0 | 0.0 | 0.00 | 0.00 | 0.00 | 92 | 1011.8 |
| 20260831101226 | 68 | 292 | 0.0 | 0.0 | 0.00 | 0.00 | 0.00 | 92 | 1011.8 |
| 20260831100629 | 68 | 292 | 0.0 | 0.0 | 0.00 | 0.00 | 0.00 | 92 | 1011.8 |
| 20260831100049 | 68 | 292 | 0.0 | 0.0 | 0.00 | 0.00 | 0.00 | 92 | 1011.8 |
| 20260831094241 | 68 | 292 | 0.0 | 0.0 | 0.00 | 0.00 | 0.00 | 92 | 1011.8 |
| 20260831093645 | 68 | 292 | 0.0 | 0.0 | 0.00 | 0.00 | 0.00 | 92 | 1011.8 |
| 20260831093047 | 68 | 292 | 0.0 | 0.0 | 0.00 | 0.00 | 0.00 | 92 | 1011.8 |
| 20260831092425 | 68 | 292 | 2.0 | 2.0 | 0.00 | 0.00 | 0.00 | 92 | 1011.8 |
| 20260831091841 | 68 | 292 | 0.0 | 0.0 | 0.00 | 0.00 | 0.00 | 92 | 1011.8 |
| 20260831090014 | 68 | 315 | 1.0 | 1.0 | 0.00 | 0.00 | 0.00 | 93 | 1011.8 |
| 20260831085446 | 68 | 315 | 0.0 | 0.0 | 0.00 | 0.00 | 0.00 | 92 | 1011.8 |
| 20260831084813 | 68 | 315 | 0.0 | 0.0 | 0.00 | 0.00 | 0.00 | 92 | 1011.8 |
| 20260831083627 | 68 | 315 | 2.0 | 2.0 | 0.00 | 0.00 | 0.00 | 92 | 1011.8 |
| 20260831083041 | 69 | 315 | 0.0 | 0.0 | 0.00 | 0.00 | 0.00 | 92 | 1011.8 |
| 20260831082423 | 69 | 315 | 1.0 | 1.0 | 0.00 | 0.00 | 0.00 | 92 | 1011.8 |
| 20260831081818 | 69 | 315 | 0.0 | 0.0 | 0.00 | 0.00 | 0.00 | 92 | 1011.8 |
| 20260831081213 | 68 | 315 | 0.0 | 0.0 | 0.00 | 0.00 | 0.00 | 93 | 1011.8 |
| 20260831080627 | 69 | 315 | 1.0 | 1.0 | 0.00 | 0.00 | 0.00 | 93 | 1011.8 |
| 20260831075429 | 69 | 315 | 0.0 | 0.0 | 0.00 | 0.00 | 0.00 | 92 | 1011.8 |
| 20260831074806 | 69 | 315 | 2.0 | 2.0 | 0.00 | 0.00 | 0.00 | 92 | 1011.8 |
| 20260831074237 | 69 | 315 | 0.0 | 0.0 | 0.00 | 0.00 | 0.00 | 92 | 1011.8 |
| 20260831073615 | 69 | 315 | 0.0 | 0.0 | 0.00 | 0.00 | 0.00 | 92 | 1011.8 |
| 20260831073040 | 69 | 315 | 0.0 | 0.0 | 0.00 | 0.00 | 0.00 | 93 | 1011.8 |